GAP2781 RPLL-RPVP

Flight info

Callsign GAP2781
Flight time N/A
Altitude 36000
Route BUCAL2R BUCAL M646 NOMYO NOMYO2W
Aircraft A321/M-SDE3FGHIRWY/LB1

Departure

Time 2026-05-04 14:27
Airport Ninoy Aquino International Airport (RPLL)

Arrival

Time N/A
Airport Puerto Princesa International Airport / PAF Antonio Bautista Air Base (RPVP)
Time Latitude Longitude Altitude Speed Heading
2026-05-04 13:58 14.50882 121.01335 82 ft 0 kts 329°
2026-05-04 14:09 14.50878 121.01337 82 ft 2 kts 330°
2026-05-04 14:09 14.50865 121.01346 82 ft 2 kts 329°
2026-05-04 14:10 14.50839 121.01362 82 ft 2 kts 329°
2026-05-04 14:10 14.50826 121.01369 82 ft 2 kts 329°
2026-05-04 14:10 14.50814 121.01377 82 ft 1 kts 329°
2026-05-04 14:10 14.50805 121.01383 82 ft 2 kts 306°
2026-05-04 14:11 14.50800 121.01398 82 ft 2 kts 269°
2026-05-04 14:11 14.50806 121.01414 82 ft 0 kts 241°
2026-05-04 14:11 14.50806 121.01415 82 ft 0 kts 241°
2026-05-04 14:14 14.50804 121.01411 82 ft 2 kts 241°
2026-05-04 14:14 14.50784 121.01375 82 ft 8 kts 240°
2026-05-04 14:15 14.50678 121.01315 82 ft 10 kts 210°
2026-05-04 14:15 14.50583 121.01163 82 ft 15 kts 240°
2026-05-04 14:16 14.50461 121.00946 82 ft 20 kts 242°
2026-05-04 14:16 14.50388 121.00813 82 ft 21 kts 240°
2026-05-04 14:17 14.50241 121.00548 82 ft 20 kts 240°
2026-05-04 14:17 14.50171 121.00423 82 ft 19 kts 240°
2026-05-04 14:17 14.50042 121.00190 82 ft 15 kts 241°
2026-05-04 14:18 14.50025 121.00159 82 ft 0 kts 241°
2026-05-04 14:19 14.50024 121.00157 82 ft 0 kts 241°
2026-05-04 14:19 14.50013 121.00138 82 ft 6 kts 240°
2026-05-04 14:19 14.49985 121.00087 82 ft 9 kts 240°
2026-05-04 14:19 14.49952 121.00028 82 ft 6 kts 240°
2026-05-04 14:20 14.49951 121.00026 82 ft 0 kts 240°
2026-05-04 14:22 14.49950 121.00024 82 ft 1 kts 240°
2026-05-04 14:22 14.49938 121.00002 82 ft 4 kts 240°
2026-05-04 14:22 14.49916 120.99972 82 ft 5 kts 218°
2026-05-04 14:23 14.49882 120.99963 82 ft 0 kts 163°
2026-05-04 14:25 14.49878 120.99965 82 ft 2 kts 161°
2026-05-04 14:25 14.49807 121.00020 82 ft 8 kts 110°
2026-05-04 14:25 14.49817 121.00072 82 ft 0 kts 60°
2026-05-04 14:26 14.49817 121.00073 82 ft 2 kts 60°
2026-05-04 14:26 14.49911 121.00240 82 ft 63 kts 59°
2026-05-04 14:26 14.50258 121.00867 82 ft 132 kts 60°
2026-05-04 14:27 14.50798 121.01822 354 ft 160 kts 59°
2026-05-04 14:27 14.51348 121.02797 969 ft 160 kts 61°
2026-05-04 14:27 14.51897 121.03800 1606 ft 161 kts 61°
2026-05-04 14:27 14.52441 121.04794 2000 ft 160 kts 61°
2026-05-04 14:28 14.53009 121.05827 2202 ft 170 kts 61°
2026-05-04 14:28 14.53612 121.06920 2414 ft 181 kts 61°
2026-05-04 14:28 14.54273 121.08115 2630 ft 194 kts 61°
2026-05-04 14:28 14.54962 121.09358 2876 ft 207 kts 61°
2026-05-04 14:29 14.55914 121.12360 3302 ft 242 kts 102°
2026-05-04 14:29 14.53323 121.14629 4101 ft 275 kts 173°
2026-05-04 14:30 14.51442 121.14249 4740 ft 283 kts 204°
2026-05-04 14:30 14.49755 121.13179 5411 ft 286 kts 213°
2026-05-04 14:30 14.46446 121.10813 6696 ft 292 kts 211°
2026-05-04 14:32 14.31838 121.01701 10845 ft 335 kts 208°
2026-05-04 14:33 14.29794 121.00460 11145 ft 346 kts 208°
2026-05-04 14:33 14.27701 120.99188 11648 ft 349 kts 208°
2026-05-04 14:33 14.25605 120.97916 12185 ft 351 kts 209°
2026-05-04 14:33 14.23477 120.96625 12700 ft 353 kts 209°
2026-05-04 14:34 14.21368 120.95345 13217 ft 355 kts 209°
2026-05-04 14:34 14.19241 120.94053 13709 ft 357 kts 209°
2026-05-04 14:34 14.17085 120.92745 14188 ft 360 kts 209°
2026-05-04 14:34 14.14899 120.91418 14668 ft 363 kts 209°
2026-05-04 14:35 14.12734 120.90106 15105 ft 366 kts 209°
2026-05-04 14:35 14.10508 120.88758 15559 ft 369 kts 209°
2026-05-04 14:35 14.08290 120.87414 16017 ft 372 kts 209°
2026-05-04 14:35 14.06047 120.86056 16451 ft 375 kts 209°
2026-05-04 14:36 14.03799 120.84695 16895 ft 377 kts 209°
2026-05-04 14:36 14.01493 120.83300 17335 ft 380 kts 209°
2026-05-04 14:36 13.99230 120.81931 17772 ft 383 kts 209°
2026-05-04 14:36 13.96900 120.80522 18212 ft 385 kts 209°
2026-05-04 14:37 13.94575 120.79116 18643 ft 387 kts 209°
2026-05-04 14:37 13.92270 120.77723 19064 ft 390 kts 209°
2026-05-04 14:37 13.89920 120.76302 19479 ft 392 kts 210°
2026-05-04 14:37 13.87543 120.74866 19875 ft 395 kts 210°
2026-05-04 14:38 13.85157 120.73424 20280 ft 397 kts 210°
2026-05-04 14:38 13.82788 120.71993 20662 ft 399 kts 210°
2026-05-04 14:38 13.80361 120.70526 21036 ft 401 kts 210°